Location: Gebenbach
(49.5378°N, 11.8735°E)
Time: 02:27:57
(UTC+00:00)

IRS-1C Rocket - Pass Details

Date: 29 October 2020
Orbit: 801 x 805 km, 99.0° (Epoch: 27 November)

Event Time Altitude Azimuth Distance (km) Brightness Sun altitude
Rises 16:49:16 0° 151° (SSE) 3,305 7.1 -9.3°
Reaches altitude 10° 16:51:36 10° 148° (SSE) 2,379 6.3 -9.7°
Maximum altitude 16:56:46 60° 69° (ENE) 922 4.1 -10.5°
Drops below altitude 10° 17:01:58 10° 351° (N) 2,398 6.6 -11.4°
Sets 17:04:20 0° 348° (NNW) 3,333 7.4 -11.7°
